Regional Weather Roundup
Issued by NWS

Home | Current Version | Previous Version | Graphics & Text | Print | Product List | Glossary On
Versions: 1 2 3 4 5 6 7 8 9 10 11 12 13 14 15 16 17 18 19 20 21 22 23 24 25 26 27
000
ASUS45 KBOU 181507
RWRCO

WEATHER ROUNDUP FOR COLORADO
NATIONAL WEATHER SERVICE DENVER/BOULDER CO
800 AM MST SAT FEB 18 2017

NOTE: "FAIR" INDICATES FEW OR NO CLOUDS BELOW 12000 FEET WITH NO
SIGNIFICANT WEATHER AND/OR OBSTRUCTIONS TO VISIBILITY.

COZ001>005-013-030-031-181600-
...NORTHWEST COLORADO...

CITY           SKY/WX    TMP DP  RH WIND       PRES   REMARKS
CRAIG          FAIR      39  31  72 E5        29.81R
HAYDEN         FAIR      34  28  80 SE9       29.82R WCI  26
MEEKER         FAIR      36  34  92 NE5       29.81S
MOUNT WERNER   NOT AVBL
STEAMBOAT SPGS FAIR      32  31  96 CALM      29.83S
WALDEN           N/A     30  23  74 SE7         N/A  WCI  23
$$

COZ006>008-011-181600-
...WEST CENTRAL VALLEYS...

CITY           SKY/WX    TMP DP  RH WIND       PRES   REMARKS
GRAND JUNCTION CLOUDY    43  38  82 SE10      29.80S
MONTROSE       FAIR      36  33  89 SE8       29.86S
EAGLE          SUNNY     34  28  80 E5        29.88R WCI  30
RIFLE          PTSUNNY   37  36  96 CALM      29.84R
DELTA          PTSUNNY   41  38  91 NE5       29.85S
NUCLA          PTSUNNY   37  34  87 E7        29.86S
$$

COZ017>023-064>068-181600-
...SOUTHWEST COLORADO...

CITY           SKY/WX    TMP DP  RH WIND       PRES   REMARKS
DURANGO        FAIR      32  29  88 NE5       29.87S WCI  27
CORTEZ         CLOUDY    34  33  96 S3        29.84R
PAGOSA SPRINGS FAIR      30  30 100 CALM      29.91R
TELLURIDE      CLOUDY    31  27  87 CALM      29.90R
WOLF CREEK PAS FAIR      21  21 100 SE5       30.02R WCI  15
$$

COZ009-010-012-014-032>034-037-058>063-181600-
...CENTRAL COLORADO...

CITY           SKY/WX    TMP DP  RH WIND       PRES   REMARKS
ASPEN          FAIR      30  26  85 S5        29.85R WCI  25
BUENA VISTA    FAIR      31  26  81 NW3       29.91R
COPPER MTN     FAIR      30  18  59 MISG      29.95R
BERTHOUD PASS  FAIR      21  12  68 W12       29.95R WCI   9
COTTONWOOD PAS FAIR      32  25  74 CALM      29.94R
GUNNISON       CLOUDY    25  22  88 NE5       29.94R WCI  19
KREMMLING      FAIR      37  34  87 CALM      29.88R
LEADVILLE      FAIR      26  17  68 SE6       29.90R WCI  19
MONARCH PASS   FAIR      23  21  93 S8        30.07R WCI  14
SALIDA         FAIR      35  27  71 N3        29.97R
SUNLIGHT       NOT AVBL
WILKERSON PASS FAIR      28  19  69 SW5       29.98R WCI  23
$$

COZ069>075-181600-
...SAN LUIS VALLEY/SANGRE DE CRISTO MOUNTAINS...

CITY           SKY/WX    TMP DP  RH WIND       PRES   REMARKS
ALAMOSA        FAIR      28  27  96 NW5       29.90R WCI  23
LA VETA PASS   FAIR      32  23  69 NE14      29.95R WCI  22
SAGUACHE       FAIR      28  27  93 NW7       29.93S WCI  21
$$

COZ035-036-038>040-181600-
...NORTHERN COLORADO FRONT RANGE...

CITY           SKY/WX    TMP DP  RH WIND       PRES   REMARKS
DENVER INTL AP PTSUNNY   42  17  36 W6        29.78R
DMNS CITY PARK   N/A     40  19  42 E2G9      29.79R
AURORA         PTSUNNY   42  18  37 SW3       29.79R
FRONT RANGE AP PTSUNNY   45  19  36 CALM      29.80R
ERIE MUNI ARPT FAIR      36  22  56 CALM      29.79R
BOULDER MUN AP FAIR      39  19  45 SW3       29.79R
CENTENNIAL     PTSUNNY   42  20  41 S3        29.80R
BROOMFIELD     PTSUNNY   39  16  38 W5        29.79R
FORT COLLINS   FAIR      35  23  61 CALM      29.79R
LONGMONT       FAIR      38  22  52 SW5       29.81R
$$

COZ041-046-047-076>085-087-088-181600-
...PIKES PEAK/PALMER DIVIDE AND SOUTHERN FOOTHILLS...

CITY           SKY/WX    TMP DP  RH WIND       PRES   REMARKS
COLO. SPRINGS  PTSUNNY   40  16  37 E5        29.84R
A. F. ACADEMY  FAIR      33  18  53 N7        29.82S WCI  27
SCHRIEVER AFB  FAIR      39  15  37 N6        29.84R
ELLICOTT       FAIR     N/A N/A N/A E3        29.82R
FALCON         FAIR      37  17  43 NW5       29.85R
FORT CARSON    FAIR      37  17  44 CALM      29.83R
LIMON          CLOUDY    32  24  72 NE6       29.82S WCI  26
MONUMENT HILL  FAIR      37  19  48 SW7       29.85R
TRINIDAD       FAIR      38  22  52 W6        29.85R
$$

COZ042>045-048>051-090-091-181600-
...NORTHEAST COLORADO...

CITY           SKY/WX    TMP DP  RH WIND       PRES   REMARKS
GREELEY ARPT   FAIR      33  22  63 S6        29.79  WCI  28
AKRON          FAIR      41  24  51 S15       29.80R
BURLINGTON     FAIR      35  26  69 SW3       29.82R
WRAY           NOT AVBL
STERLING       PTSUNNY   36  27  69 CALM      29.80R
HOLYOKE        FAIR      36  28  75 W6        29.82R
FORT MORGAN    CLOUDY    37  24  60 CALM      29.81R
$$

COZ086-089-092>099-181600-
...SOUTHEAST COLORADO...

CITY           SKY/WX    TMP DP  RH WIND       PRES   REMARKS
PUEBLO         FAIR      36  21  54 W3        29.83R
LA JUNTA       FAIR      35  24  64 CALM      29.82R
LAMAR          FAIR      28  21  75 CALM      29.82R
SPRINGFIELD      N/A     40  24  53 NW7       29.82R
$$




USA.gov is the U.S. government's official web portal to all federal, state and local government web resources and services.